Location: Branche des Alpilles
(43.6087°N, 4.6976°E)
Time: 09:55:38
(UTC+00:00)

NOSS 3-2 (A) - Pass Details

Date: 30 November 2020
Orbit: 789 x 1419 km, 63.4° (Epoch: 22 January)

Event Time Altitude Azimuth Distance (km) Brightness Sun altitude
Rises 17:27:32 0° 186° (S) 3,301 6.6 -14.4°
Reaches altitude 10° 17:30:04 10° 176° (S) 2,413 5.7 -14.8°
Maximum altitude 17:34:58 33° 113° (ESE) 1,422 4.0 -15.7°
Enters shadow 17:37:25 24° 72° (ENE) 1,780 4.3 -16.1°
